Location: Glion
(46.4330°N, 6.9246°E)
Time: 05:08:35
(UTC+00:00)

Cosmos 2219 Rocket - Pass Details

Date: 03 March 2021
Orbit: 826 x 848 km, 71.0° (Epoch: 22 April)

Event Time Altitude Azimuth Distance (km) Brightness Sun altitude
Rises 19:22:51 0° 194° (SSW) 3,351 5.3 -21.6°
Reaches altitude 10° 19:25:16 10° 192° (SSW) 2,424 4.5 -22.0°
Maximum altitude 19:30:45 64° 112° (ESE) 921 2.0 -22.9°
Drops below altitude 10° 19:36:17 10° 32° (NNE) 2,451 4.4 -23.8°
Sets 19:38:46 0° 30° (NNE) 3,392 5.2 -24.2°
